| time (UTC) | temp C | wind direction | speed KPH | gust KPH | rain 1hr cm | rain 24hr cm | rain mn cm | humidity % | barometer mb |
| 20260506153547 | 15 | 0 | 0.0 | 11.3 | 0.00 | 0.00 | 0.00 | 83 | 1014.3 |
| 20260506153051 | 15 | 0 | 1.6 | 11.3 | 0.00 | 0.00 | 0.00 | 83 | 1014.2 |
| 20260506152545 | 15 | 0 | 1.6 | 6.4 | 0.00 | 0.00 | 0.00 | 84 | 1013.9 |
| 20260506152047 | 15 | 72 | 0.0 | 6.4 | 0.00 | 0.00 | 0.00 | 84 | 1013.6 |
| 20260506151603 | 15 | 0 | 0.0 | 4.8 | 0.00 | 0.00 | 0.00 | 84 | 1013.6 |
| 20260506151047 | 15 | 0 | 0.0 | 9.7 | 0.00 | 0.00 | 0.00 | 84 | 1013.4 |
| 20260506150547 | 15 | 0 | 0.0 | 11.3 | 0.00 | 0.00 | 0.00 | 84 | 1013.4 |
| 20260506150054 | 15 | 57 | 0.0 | 11.3 | 0.00 | 0.00 | 0.00 | 84 | 1013.4 |
| 20260506145547 | 15 | 0 | 1.6 | 6.4 | 0.00 | 0.00 | 0.00 | 84 | 1013.5 |
| 20260506145048 | 15 | 0 | 0.0 | 8.0 | 0.00 | 0.00 | 0.00 | 85 | 1013.4 |
| 20260506144557 | 15 | 0 | 0.0 | 8.0 | 0.00 | 0.00 | 0.00 | 85 | 1013.5 |
| 20260506144047 | 15 | 0 | 0.0 | 9.7 | 0.00 | 0.00 | 0.00 | 85 | 1013.4 |
| 20260506143547 | 15 | 0 | 0.0 | 11.3 | 0.00 | 0.00 | 0.00 | 85 | 1013.3 |
| 20260506143055 | 15 | 0 | 1.6 | 11.3 | 0.00 | 0.00 | 0.00 | 85 | 1013.1 |
| 20260506142547 | 15 | 0 | 0.0 | 11.3 | 0.00 | 0.00 | 0.00 | 85 | 1013.0 |
| 20260506142049 | 15 | 0 | 1.6 | 9.7 | 0.00 | 0.00 | 0.00 | 85 | 1013.0 |
| 20260506141552 | 15 | 48 | 0.0 | 8.0 | 0.00 | 0.00 | 0.00 | 85 | 1013.0 |
| 20260506141044 | 15 | 0 | 0.0 | 11.3 | 0.00 | 0.00 | 0.00 | 85 | 1012.9 |
| 20260506140550 | 15 | 0 | 1.6 | 11.3 | 0.00 | 0.00 | 0.00 | 84 | 1012.8 |
| 20260506135547 | 15 | 0 | 0.0 | 11.3 | 0.00 | 0.00 | 0.00 | 84 | 1012.6 |
| 20260506135049 | 15 | 0 | 1.6 | 11.3 | 0.00 | 0.00 | 0.00 | 84 | 1012.5 |
| 20260506134550 | 15 | 0 | 3.2 | 12.9 | 0.00 | 0.00 | 0.00 | 85 | 1012.5 |
| 20260506134047 | 16 | 0 | 1.6 | 12.9 | 0.00 | 0.00 | 0.00 | 84 | 1012.3 |
| 20260506133549 | 16 | 0 | 0.0 | 8.0 | 0.00 | 0.00 | 0.00 | 85 | 1012.0 |
| 20260506133054 | 16 | 0 | 0.0 | 8.0 | 0.00 | 0.00 | 0.00 | 85 | 1012.0 |
| 20260506132548 | 16 | 0 | 0.0 | 0.0 | 0.00 | 0.00 | 0.00 | 85 | 1012.1 |
| 20260506132048 | 16 | 0 | 0.0 | 9.7 | 0.00 | 0.00 | 0.00 | 85 | 1012.0 |
| 20260506131554 | 16 | 0 | 0.0 | 14.5 | 0.00 | 0.00 | 0.00 | 84 | 1012.0 |
| 20260506131048 | 16 | 65 | 1.6 | 14.5 | 0.00 | 0.00 | 0.00 | 84 | 1011.9 |
| 20260506130547 | 16 | 161 | 1.6 | 9.7 | 0.00 | 0.00 | 0.00 | 84 | 1011.8 |
| 20260506130118 | 17 | 0 | 1.6 | 9.7 | 0.00 | 0.00 | 0.00 | 84 | 1011.8 |
| 20260506125544 | 17 | 0 | 1.6 | 16.1 | 0.00 | 0.00 | 0.00 | 84 | 1011.6 |
| 20260506125047 | 17 | 0 | 1.6 | 16.1 | 0.00 | 0.00 | 0.00 | 83 | 1011.3 |
| 20260506124550 | 17 | 0 | 0.0 | 6.4 | 0.00 | 0.00 | 0.00 | 83 | 1011.3 |
| 20260506124049 | 17 | 0 | 0.0 | 12.9 | 0.00 | 0.00 | 0.00 | 83 | 1011.2 |
| 20260506123548 | 17 | 0 | 1.6 | 12.9 | 0.00 | 0.00 | 0.00 | 83 | 1011.1 |
| 20260506123050 | 17 | 0 | 0.0 | 14.5 | 0.00 | 0.00 | 0.00 | 83 | 1011.1 |
| 20260506122547 | 17 | 0 | 1.6 | 14.5 | 0.00 | 0.00 | 0.00 | 82 | 1011.0 |
| 20260506122046 | 18 | 52 | 1.6 | 14.5 | 0.00 | 0.00 | 0.00 | 82 | 1011.0 |
| 20260506121553 | 18 | 0 | 1.6 | 12.9 | 0.00 | 0.00 | 0.00 | 82 | 1010.9 |
| 20260506121048 | 18 | 43 | 1.6 | 12.9 | 0.00 | 0.00 | 0.00 | 82 | 1010.9 |
| 20260506120545 | 18 | 0 | 1.6 | 9.7 | 0.00 | 0.00 | 0.00 | 81 | 1010.8 |
| 20260506120048 | 18 | 0 | 0.0 | 14.5 | 0.00 | 0.00 | 0.00 | 81 | 1010.7 |
| 20260506115545 | 19 | 37 | 3.2 | 14.5 | 0.00 | 0.00 | 0.00 | 81 | 1010.6 |
| 20260506115046 | 19 | 77 | 0.0 | 8.0 | 0.00 | 0.00 | 0.00 | 80 | 1010.5 |
| 20260506114548 | 19 | 0 | 0.0 | 9.7 | 0.00 | 0.00 | 0.00 | 81 | 1010.3 |
| 20260506114044 | 20 | 11 | 0.0 | 9.7 | 0.00 | 0.00 | 0.00 | 80 | 1010.3 |
| 20260506113544 | 20 | 0 | 1.6 | 9.7 | 0.00 | 0.00 | 0.00 | 81 | 1010.2 |
| 20260506113048 | 20 | 0 | 0.0 | 9.7 | 0.00 | 0.00 | 0.00 | 81 | 1010.1 |
| 20260506112546 | 20 | 0 | 1.6 | 9.7 | 0.00 | 0.00 | 0.00 | 82 | 1009.9 |
| 20260506112047 | 21 | 72 | 0.0 | 11.3 | 0.00 | 0.00 | 0.00 | 83 | 1009.9 |
| 20260506111546 | 21 | 51 | 0.0 | 11.3 | 0.00 | 0.00 | 0.00 | 84 | 1009.9 |
| 20260506111045 | 22 | 56 | 0.0 | 0.0 | 0.00 | 0.00 | 0.00 | 86 | 1009.7 |
| 20260506110548 | 22 | 0 | 0.0 | 0.0 | 0.00 | 0.00 | 0.00 | 87 | 1009.6 |
| 20260506105548 | 22 | 0 | 0.0 | 0.0 | 0.00 | 0.00 | 0.00 | 87 | 1009.5 |
| 20260506105048 | 22 | 0 | 0.0 | 0.0 | 0.00 | 0.00 | 0.00 | 87 | 1009.4 |
| 20260506104610 | 22 | 0 | 0.0 | 0.0 | 0.00 | 0.00 | 0.00 | 87 | 1009.4 |
| 20260506104044 | 22 | 0 | 0.0 | 0.0 | 0.00 | 0.00 | 0.00 | 87 | 1009.4 |
| 20260506103544 | 22 | 0 | 0.0 | 0.0 | 0.00 | 0.00 | 0.00 | 87 | 1009.2 |
| 20260506103053 | 22 | 0 | 0.0 | 0.0 | 0.00 | 0.00 | 0.00 | 87 | 1009.1 |
| 20260506102546 | 23 | 0 | 0.0 | 0.0 | 0.00 | 0.00 | 0.00 | 87 | 1009.0 |
| 20260506102045 | 23 | 0 | 0.0 | 0.0 | 0.00 | 0.00 | 0.00 | 87 | 1008.9 |
| 20260506101559 | 23 | 0 | 0.0 | 0.0 | 0.00 | 0.00 | 0.00 | 87 | 1008.9 |
| 20260506101045 | 23 | 0 | 0.0 | 0.0 | 0.00 | 0.00 | 0.00 | 87 | 1008.9 |
| 20260506100550 | 23 | 0 | 0.0 | 0.0 | 0.00 | 0.00 | 0.00 | 87 | 1008.9 |
| 20260506100053 | 23 | 0 | 0.0 | 0.0 | 0.00 | 0.00 | 0.00 | 87 | 1008.8 |
| 20260506095547 | 23 | 0 | 0.0 | 0.0 | 0.00 | 0.00 | 0.00 | 87 | 1008.9 |
| 20260506095045 | 23 | 0 | 0.0 | 0.0 | 0.00 | 0.00 | 0.00 | 87 | 1008.9 |
| 20260506094557 | 23 | 0 | 0.0 | 0.0 | 0.00 | 0.00 | 0.00 | 87 | 1008.7 |
| 20260506094044 | 23 | 0 | 0.0 | 0.0 | 0.00 | 0.00 | 0.00 | 87 | 1008.8 |
| 20260506093547 | 23 | 0 | 0.0 | 0.0 | 0.00 | 0.00 | 0.00 | 87 | 1008.8 |
| 20260506093054 | 23 | 0 | 0.0 | 0.0 | 0.00 | 0.00 | 0.00 | 87 | 1008.9 |
| 20260506092548 | 23 | 0 | 0.0 | 0.0 | 0.00 | 0.00 | 0.00 | 87 | 1008.8 |
| 20260506092045 | 23 | 0 | 0.0 | 0.0 | 0.00 | 0.00 | 0.00 | 87 | 1009.0 |
| 20260506091551 | 23 | 0 | 0.0 | 0.0 | 0.00 | 0.00 | 0.00 | 87 | 1008.9 |
| 20260506091047 | 23 | 0 | 0.0 | 0.0 | 0.00 | 0.00 | 0.00 | 87 | 1008.9 |
| 20260506090548 | 23 | 0 | 0.0 | 0.0 | 0.00 | 0.00 | 0.00 | 87 | 1008.8 |
| 20260506090051 | 23 | 0 | 0.0 | 0.0 | 0.00 | 0.00 | 0.00 | 87 | 1008.8 |
| 20260506085650 | 23 | 0 | 0.0 | 0.0 | 0.00 | 0.00 | 0.00 | 87 | 1009.0 |
| 20260506085047 | 23 | 0 | 0.0 | 0.0 | 0.00 | 0.00 | 0.00 | 87 | 1008.9 |
| 20260506084553 | 23 | 0 | 0.0 | 0.0 | 0.00 | 0.00 | 0.00 | 87 | 1008.8 |
| 20260506084044 | 23 | 0 | 0.0 | 0.0 | 0.00 | 0.00 | 0.00 | 87 | 1008.8 |
| 20260506083547 | 23 | 0 | 0.0 | 0.0 | 0.00 | 0.00 | 0.00 | 87 | 1008.9 |
| 20260506083054 | 23 | 0 | 0.0 | 0.0 | 0.00 | 0.00 | 0.00 | 87 | 1009.0 |
| 20260506082551 | 23 | 0 | 0.0 | 6.4 | 0.00 | 0.00 | 0.00 | 87 | 1008.9 |
| 20260506082053 | 23 | 0 | 0.0 | 6.4 | 0.00 | 0.00 | 0.00 | 87 | 1008.9 |
| 20260506081549 | 23 | 0 | 0.0 | 6.4 | 0.00 | 0.00 | 0.00 | 86 | 1008.9 |
| 20260506081048 | 23 | 0 | 0.0 | 0.0 | 0.00 | 0.00 | 0.00 | 86 | 1009.1 |
| 20260506080545 | 23 | 0 | 0.0 | 0.0 | 0.00 | 0.00 | 0.00 | 86 | 1009.0 |
| 20260506073100 | 23 | 0 | 0.0 | 0.0 | 0.00 | 0.00 | 0.00 | 86 | 1009.1 |
| 20260506072546 | 23 | 0 | 0.0 | 0.0 | 0.00 | 0.00 | 0.00 | 86 | 1009.2 |
| 20260506072048 | 23 | 0 | 0.0 | 0.0 | 0.00 | 0.00 | 0.00 | 86 | 1009.2 |
| 20260506071609 | 23 | 0 | 0.0 | 0.0 | 0.00 | 0.00 | 0.00 | 85 | 1009.0 |
| 20260506071050 | 23 | 0 | 0.0 | 0.0 | 0.00 | 0.00 | 0.00 | 85 | 1009.1 |
| 20260506070545 | 23 | 0 | 0.0 | 0.0 | 0.00 | 0.00 | 0.00 | 85 | 1009.3 |
| 20260506070104 | 23 | 0 | 0.0 | 0.0 | 0.00 | 0.00 | 0.00 | 85 | 1009.2 |
| 20260506062045 | 23 | 0 | 0.0 | 0.0 | 0.00 | 0.00 | 0.00 | 85 | 1009.0 |
| 20260506061554 | 23 | 0 | 0.0 | 0.0 | 0.00 | 0.00 | 0.00 | 84 | 1009.0 |
| 20260506061047 | 23 | 0 | 0.0 | 0.0 | 0.00 | 0.00 | 0.00 | 84 | 1008.8 |
| 20260506060546 | 23 | 0 | 0.0 | 0.0 | 0.00 | 0.00 | 0.00 | 84 | 1008.8 |
| 20260506051048 | 24 | 254 | 0.0 | 9.7 | 0.00 | 0.00 | 0.00 | 83 | 1008.8 |
| 20260506050545 | 24 | 0 | 0.0 | 9.7 | 0.00 | 0.00 | 0.00 | 83 | 1008.8 |
| 20260506045044 | 25 | 0 | 0.0 | 8.0 | 0.00 | 0.00 | 0.00 | 82 | 1008.7 |
| 20260506044555 | 25 | 0 | 0.0 | 6.4 | 0.00 | 0.00 | 0.00 | 82 | 1008.9 |
| 20260506044048 | 25 | 0 | 0.0 | 8.0 | 0.00 | 0.00 | 0.00 | 82 | 1008.8 |
| 20260506043547 | 25 | 0 | 1.6 | 8.0 | 0.00 | 0.00 | 0.00 | 82 | 1008.9 |
| 20260506043050 | 25 | 0 | 0.0 | 11.3 | 0.00 | 0.00 | 0.00 | 82 | 1008.8 |
| 20260506042544 | 25 | 0 | 3.2 | 11.3 | 0.00 | 0.00 | 0.00 | 82 | 1008.8 |
| 20260506042045 | 25 | 0 | 1.6 | 12.9 | 0.00 | 0.00 | 0.00 | 82 | 1008.8 |
| 20260506041603 | 25 | 0 | 0.0 | 14.5 | 0.00 | 0.00 | 0.00 | 81 | 1008.8 |
| 20260506041044 | 25 | 257 | 1.6 | 14.5 | 0.00 | 0.00 | 0.00 | 81 | 1008.5 |
| 20260506040545 | 25 | 263 | 3.2 | 14.5 | 0.00 | 0.00 | 0.00 | 81 | 1008.2 |
| 20260506040053 | 25 | 0 | 6.4 | 14.5 | 0.00 | 0.00 | 0.00 | 81 | 1008.0 |
| 20260506035547 | 25 | 239 | 3.2 | 12.9 | 0.00 | 0.00 | 0.00 | 81 | 1007.9 |
| 20260506035047 | 25 | 267 | 3.2 | 12.9 | 0.00 | 0.00 | 0.00 | 82 | 1007.7 |
| 20260506034549 | 25 | 0 | 1.6 | 19.3 | 0.00 | 0.00 | 0.00 | 81 | 1007.8 |
| 20260506034044 | 25 | 213 | 1.6 | 19.3 | 0.00 | 0.00 | 0.00 | 81 | 1007.8 |
| 20260506033549 | 25 | 219 | 6.4 | 19.3 | 0.00 | 0.00 | 0.00 | 81 | 1007.6 |
| 20260506033048 | 25 | 230 | 0.0 | 14.5 | 0.00 | 0.00 | 0.00 | 81 | 1007.6 |
| 20260506032545 | 25 | 0 | 3.2 | 14.5 | 0.00 | 0.00 | 0.00 | 81 | 1007.5 |
| 20260506032045 | 25 | 0 | 1.6 | 14.5 | 0.00 | 0.00 | 0.00 | 81 | 1007.4 |
| 20260506031556 | 25 | 257 | 1.6 | 12.9 | 0.00 | 0.00 | 0.00 | 81 | 1007.5 |
| 20260506031045 | 25 | 219 | 3.2 | 11.3 | 0.00 | 0.00 | 0.00 | 81 | 1007.5 |
| 20260506030550 | 25 | 0 | 0.0 | 8.0 | 0.00 | 0.00 | 0.00 | 81 | 1007.6 |
| 20260506030050 | 25 | 0 | 0.0 | 8.0 | 0.00 | 0.00 | 0.00 | 81 | 1007.6 |
| 20260506025548 | 25 | 0 | 0.0 | 12.9 | 0.00 | 0.00 | 0.00 | 81 | 1007.4 |
| 20260506025044 | 25 | 0 | 3.2 | 12.9 | 0.00 | 0.00 | 0.00 | 81 | 1007.3 |
| 20260506024555 | 25 | 0 | 0.0 | 9.7 | 0.00 | 0.00 | 0.00 | 80 | 1007.3 |
| 20260506024045 | 25 | 0 | 0.0 | 12.9 | 0.00 | 0.00 | 0.00 | 80 | 1007.3 |
| 20260506023547 | 25 | 245 | 3.2 | 12.9 | 0.00 | 0.00 | 0.00 | 80 | 1007.1 |
| 20260506023100 | 26 | 255 | 1.6 | 12.9 | 0.00 | 0.00 | 0.00 | 80 | 1007.1 |
| 20260506022545 | 26 | 256 | 1.6 | 8.0 | 0.00 | 0.00 | 0.00 | 80 | 1007.1 |
| 20260506022045 | 26 | 0 | 0.0 | 0.0 | 0.00 | 0.00 | 0.00 | 79 | 1007.1 |
| 20260506021557 | 26 | 0 | 0.0 | 0.0 | 0.00 | 0.00 | 0.00 | 79 | 1007.1 |
| 20260506021045 | 26 | 0 | 0.0 | 0.0 | 0.00 | 0.00 | 0.00 | 79 | 1007.1 |
| 20260506020544 | 26 | 0 | 0.0 | 0.0 | 0.00 | 0.00 | 0.00 | 79 | 1007.0 |
| 20260506020054 | 26 | 0 | 0.0 | 0.0 | 0.00 | 0.00 | 0.00 | 79 | 1007.0 |
| 20260506015547 | 26 | 0 | 0.0 | 0.0 | 0.00 | 0.00 | 0.00 | 78 | 1007.1 |
| 20260506015044 | 26 | 0 | 0.0 | 4.8 | 0.00 | 0.00 | 0.00 | 78 | 1007.0 |
| 20260506014557 | 26 | 0 | 0.0 | 4.8 | 0.00 | 0.00 | 0.00 | 78 | 1007.0 |
| 20260506014044 | 26 | 0 | 0.0 | 3.2 | 0.00 | 0.00 | 0.00 | 78 | 1007.0 |
| 20260506013547 | 27 | 0 | 0.0 | 3.2 | 0.00 | 0.00 | 0.00 | 78 | 1006.8 |
| 20260506013052 | 27 | 0 | 0.0 | 0.0 | 0.00 | 0.00 | 0.00 | 77 | 1006.8 |
| 20260506012545 | 27 | 0 | 0.0 | 0.0 | 0.00 | 0.00 | 0.00 | 77 | 1006.7 |
| 20260506012044 | 27 | 0 | 0.0 | 0.0 | 0.00 | 0.00 | 0.00 | 76 | 1006.5 |
| 20260506011552 | 27 | 0 | 0.0 | 0.0 | 0.00 | 0.00 | 0.00 | 76 | 1006.5 |
| 20260506011045 | 27 | 0 | 0.0 | 0.0 | 0.00 | 0.00 | 0.00 | 76 | 1006.4 |
| 20260506010546 | 27 | 0 | 0.0 | 0.0 | 0.00 | 0.00 | 0.00 | 75 | 1006.2 |
| 20260506010050 | 27 | 0 | 0.0 | 0.0 | 0.00 | 0.00 | 0.00 | 75 | 1006.2 |
| 20260506005545 | 27 | 0 | 0.0 | 0.0 | 0.00 | 0.00 | 0.00 | 75 | 1006.2 |
| 20260506005044 | 28 | 0 | 0.0 | 0.0 | 0.00 | 0.00 | 0.00 | 75 | 1006.2 |
| 20260506004558 | 28 | 0 | 0.0 | 0.0 | 0.00 | 0.00 | 0.00 | 74 | 1006.1 |
| 20260506004044 | 28 | 0 | 0.0 | 0.0 | 0.00 | 0.00 | 0.00 | 74 | 1006.0 |
| 20260506003544 | 28 | 0 | 0.0 | 0.0 | 0.00 | 0.00 | 0.00 | 74 | 1006.0 |
| 20260506003053 | 28 | 0 | 0.0 | 0.0 | 0.00 | 0.00 | 0.00 | 74 | 1006.0 |
| 20260506002547 | 28 | 0 | 0.0 | 0.0 | 0.00 | 0.00 | 0.00 | 73 | 1005.9 |
| 20260506002044 | 28 | 0 | 0.0 | 0.0 | 0.00 | 0.00 | 0.00 | 73 | 1005.9 |
| 20260506001614 | 28 | 0 | 0.0 | 0.0 | 0.00 | 0.00 | 0.00 | 73 | 1006.0 |
| 20260506001045 | 28 | 0 | 0.0 | 0.0 | 0.00 | 0.00 | 0.00 | 73 | 1005.8 |
| 20260506000545 | 28 | 0 | 0.0 | 0.0 | 0.00 | 0.00 | 0.00 | 72 | 1005.6 |
| 20260506000054 | 28 | 0 | 0.0 | 0.0 | 0.00 | 0.00 | 0.00 | 72 | 1005.8 |
| 20260505235546 | 28 | 0 | 0.0 | 0.0 | 0.00 | 0.00 | 0.00 | 72 | 1005.7 |
| 20260505235048 | 28 | 0 | 0.0 | 8.0 | 0.00 | 0.00 | 0.00 | 72 | 1005.6 |
| 20260505234556 | 28 | 0 | 0.0 | 9.7 | 0.00 | 0.00 | 0.00 | 71 | 1005.7 |
| 20260505234047 | 28 | 262 | 1.6 | 9.7 | 0.00 | 0.00 | 0.00 | 71 | 1005.6 |
| 20260505233548 | 28 | 259 | 0.0 | 8.0 | 0.00 | 0.00 | 0.00 | 71 | 1005.6 |
| 20260505233056 | 28 | 0 | 0.0 | 0.0 | 0.00 | 0.00 | 0.00 | 71 | 1005.6 |
| 20260505232544 | 28 | 0 | 0.0 | 12.9 | 0.00 | 0.00 | 0.00 | 71 | 1005.5 |
| 20260505232044 | 28 | 0 | 3.2 | 12.9 | 0.00 | 0.00 | 0.00 | 70 | 1005.5 |
| 20260505231556 | 28 | 256 | 3.2 | 12.9 | 0.00 | 0.00 | 0.00 | 70 | 1005.4 |
| 20260505231046 | 28 | 0 | 0.0 | 11.3 | 0.00 | 0.00 | 0.00 | 71 | 1005.5 |
| 20260505230545 | 28 | 0 | 0.0 | 19.3 | 0.00 | 0.00 | 0.00 | 71 | 1005.6 |
| 20260505230113 | 28 | 258 | 3.2 | 19.3 | 0.00 | 0.00 | 0.00 | 71 | 1005.4 |
| 20260505225547 | 28 | 267 | 3.2 | 16.1 | 0.00 | 0.00 | 0.00 | 71 | 1005.3 |
| 20260505225045 | 29 | 250 | 4.8 | 16.1 | 0.00 | 0.00 | 0.00 | 71 | 1005.5 |
| 20260505224552 | 28 | 262 | 3.2 | 14.5 | 0.00 | 0.00 | 0.00 | 72 | 1005.7 |
| 20260505224044 | 28 | 262 | 0.0 | 12.9 | 0.00 | 0.00 | 0.00 | 72 | 1005.7 |
| 20260505223544 | 28 | 0 | 0.0 | 12.9 | 0.00 | 0.00 | 0.00 | 72 | 1005.6 |
| 20260505223059 | 28 | 272 | 1.6 | 12.9 | 0.00 | 0.00 | 0.00 | 71 | 1005.6 |
| 20260505222544 | 28 | 0 | 0.0 | 12.9 | 0.00 | 0.00 | 0.00 | 72 | 1005.6 |
| 20260505222044 | 28 | 284 | 3.2 | 12.9 | 0.00 | 0.00 | 0.00 | 71 | 1005.6 |
| 20260505221558 | 28 | 0 | 3.2 | 11.3 | 0.00 | 0.00 | 0.00 | 71 | 1005.5 |
| 20260505221049 | 28 | 226 | 4.8 | 11.3 | 0.00 | 0.00 | 0.00 | 70 | 1005.6 |
| 20260505220547 | 29 | 285 | 3.2 | 16.1 | 0.00 | 0.00 | 0.00 | 70 | 1005.7 |
| 20260505220100 | 29 | 260 | 4.8 | 16.1 | 0.00 | 0.00 | 0.00 | 70 | 1005.8 |
| 20260505215546 | 29 | 276 | 8.0 | 22.5 | 0.00 | 0.00 | 0.00 | 70 | 1005.9 |
| 20260505215045 | 29 | 261 | 6.4 | 22.5 | 0.00 | 0.00 | 0.00 | 70 | 1006.0 |
| 20260505214604 | 29 | 266 | 8.0 | 22.5 | 0.00 | 0.00 | 0.00 | 70 | 1006.0 |
| 20260505214045 | 28 | 263 | 6.4 | 17.7 | 0.00 | 0.00 | 0.00 | 71 | 1006.0 |
| 20260505213544 | 28 | 272 | 8.0 | 17.7 | 0.00 | 0.00 | 0.00 | 70 | 1006.2 |
| 20260505213057 | 29 | 266 | 6.4 | 16.1 | 0.00 | 0.00 | 0.00 | 70 | 1006.2 |
| 20260505212544 | 29 | 252 | 4.8 | 16.1 | 0.00 | 0.00 | 0.00 | 70 | 1006.2 |
| 20260505212045 | 29 | 0 | 3.2 | 16.1 | 0.00 | 0.00 | 0.00 | 70 | 1006.3 |
| 20260505211553 | 29 | 262 | 4.8 | 14.5 | 0.00 | 0.00 | 0.00 | 71 | 1006.4 |
| 20260505211046 | 29 | 257 | 1.6 | 17.7 | 0.00 | 0.00 | 0.00 | 71 | 1006.5 |
| 20260505210544 | 29 | 0 | 6.4 | 17.7 | 0.00 | 0.00 | 0.00 | 71 | 1006.5 |
| 20260505210056 | 29 | 262 | 0.0 | 20.9 | 0.00 | 0.00 | 0.00 | 72 | 1006.6 |
| 20260505205545 | 28 | 274 | 3.2 | 20.9 | 0.00 | 0.00 | 0.00 | 72 | 1006.5 |
| 20260505205047 | 28 | 270 | 8.0 | 22.5 | 0.00 | 0.00 | 0.00 | 70 | 1006.5 |
| 20260505204550 | 29 | 278 | 8.0 | 22.5 | 0.00 | 0.00 | 0.00 | 71 | 1006.5 |
| 20260505204044 | 29 | 269 | 4.8 | 17.7 | 0.00 | 0.00 | 0.00 | 71 | 1006.5 |
| 20260505203545 | 29 | 0 | 1.6 | 17.7 | 0.00 | 0.00 | 0.00 | 71 | 1006.5 |
| 20260505203051 | 29 | 262 | 6.4 | 14.5 | 0.00 | 0.00 | 0.00 | 70 | 1006.5 |
| 20260505202547 | 29 | 265 | 4.8 | 14.5 | 0.00 | 0.00 | 0.00 | 71 | 1006.6 |
| 20260505202051 | 29 | 259 | 4.8 | 20.9 | 0.00 | 0.00 | 0.00 | 72 | 1006.7 |
| 20260505201557 | 29 | 268 | 9.7 | 25.7 | 0.00 | 0.00 | 0.00 | 71 | 1006.7 |
| 20260505201045 | 28 | 311 | 12.9 | 25.7 | 0.00 | 0.00 | 0.00 | 71 | 1006.7 |
| 20260505200545 | 28 | 0 | 4.8 | 16.1 | 0.00 | 0.00 | 0.00 | 73 | 1006.7 |
| 20260505200052 | 28 | 279 | 8.0 | 16.1 | 0.00 | 0.00 | 0.00 | 73 | 1006.8 |
| 20260505195544 | 28 | 285 | 8.0 | 22.5 | 0.00 | 0.00 | 0.00 | 73 | 1006.9 |
| 20260505195046 | 28 | 288 | 8.0 | 22.5 | 0.00 | 0.00 | 0.00 | 74 | 1006.9 |
| 20260505194555 | 27 | 307 | 11.3 | 22.5 | 0.00 | 0.00 | 0.00 | 73 | 1006.9 |
| 20260505194044 | 27 | 268 | 8.0 | 25.7 | 0.00 | 0.00 | 0.00 | 74 | 1007.0 |
| 20260505193548 | 27 | 272 | 9.7 | 25.7 | 0.00 | 0.00 | 0.00 | 73 | 1007.1 |
| 20260505193051 | 27 | 280 | 9.7 | 25.7 | 0.00 | 0.00 | 0.00 | 72 | 1007.1 |
| 20260505192546 | 27 | 285 | 11.3 | 24.1 | 0.00 | 0.00 | 0.00 | 73 | 1007.2 |
| 20260505192045 | 27 | 276 | 11.3 | 27.4 | 0.00 | 0.00 | 0.00 | 73 | 1007.2 |
| 20260505191556 | 27 | 288 | 14.5 | 27.4 | 0.00 | 0.00 | 0.00 | 74 | 1007.2 |
| 20260505191046 | 27 | 265 | 11.3 | 24.1 | 0.00 | 0.00 | 0.00 | 73 | 1007.3 |
| 20260505190544 | 27 | 302 | 11.3 | 25.7 | 0.00 | 0.00 | 0.00 | 75 | 1007.3 |
| 20260505190113 | 27 | 300 | 8.0 | 25.7 | 0.00 | 0.00 | 0.00 | 75 | 1007.4 |
| 20260505185545 | 27 | 259 | 9.7 | 25.7 | 0.00 | 0.00 | 0.00 | 76 | 1007.5 |
| 20260505185046 | 27 | 246 | 9.7 | 25.7 | 0.00 | 0.00 | 0.00 | 76 | 1007.5 |
| 20260505184604 | 27 | 326 | 12.9 | 25.7 | 0.00 | 0.00 | 0.00 | 76 | 1007.4 |
| 20260505184046 | 26 | 288 | 11.3 | 25.7 | 0.00 | 0.00 | 0.00 | 76 | 1007.5 |
| 20260505183545 | 26 | 296 | 9.7 | 24.1 | 0.00 | 0.00 | 0.00 | 77 | 1007.5 |
| 20260505183055 | 26 | 250 | 11.3 | 24.1 | 0.00 | 0.00 | 0.00 | 77 | 1007.6 |
| 20260505182547 | 26 | 259 | 11.3 | 20.9 | 0.00 | 0.00 | 0.00 | 77 | 1007.6 |
| 20260505182049 | 26 | 285 | 6.4 | 19.3 | 0.00 | 0.00 | 0.00 | 78 | 1007.6 |
| 20260505181553 | 26 | 263 | 9.7 | 19.3 | 0.00 | 0.00 | 0.00 | 78 | 1007.8 |
| 20260505181050 | 26 | 259 | 8.0 | 19.3 | 0.00 | 0.00 | 0.00 | 78 | 1007.7 |
| 20260505180548 | 26 | 264 | 8.0 | 19.3 | 0.00 | 0.00 | 0.00 | 78 | 1008.0 |
| 20260505180058 | 26 | 257 | 8.0 | 19.3 | 0.00 | 0.00 | 0.00 | 79 | 1008.0 |
| 20260505175548 | 25 | 305 | 6.4 | 16.1 | 0.00 | 0.00 | 0.00 | 80 | 1008.0 |
| 20260505175048 | 25 | 276 | 6.4 | 19.3 | 0.00 | 0.00 | 0.00 | 80 | 1008.1 |
| 20260505174615 | 25 | 0 | 3.2 | 19.3 | 0.00 | 0.00 | 0.00 | 80 | 1008.0 |
| 20260505174159 | 25 | 302 | 8.0 | 17.7 | 0.00 | 0.00 | 0.00 | 80 | 1008.1 |
| 20260505174119 | 25 | 302 | 8.0 | 17.7 | 0.00 | 0.00 | 0.00 | 80 | 1008.1 |
| 20260505174047 | 25 | 302 | 8.0 | 17.7 | 0.00 | 0.00 | 0.00 | 80 | 1008.1 |
| 20260505173548 | 25 | 284 | 1.6 | 12.9 | 0.00 | 0.00 | 0.00 | 81 | 1008.2 |
| 20260505173053 | 25 | 0 | 4.8 | 12.9 | 0.00 | 0.00 | 0.00 | 80 | 1008.1 |
| 20260505172547 | 25 | 225 | 0.0 | 16.1 | 0.00 | 0.00 | 0.00 | 81 | 1008.2 |
| 20260505172136 | 25 | 0 | 3.2 | 16.1 | 0.00 | 0.00 | 0.00 | 80 | 1008.2 |
| 20260505172044 | 25 | 0 | 3.2 | 16.1 | 0.00 | 0.00 | 0.00 | 80 | 1008.2 |
| 20260505171551 | 24 | 259 | 8.0 | 16.1 | 0.00 | 0.00 | 0.00 | 80 | 1008.2 |
| 20260505171046 | 24 | 269 | 8.0 | 16.1 | 0.00 | 0.00 | 0.00 | 81 | 1008.3 |
| 20260505170544 | 24 | 293 | 6.4 | 16.1 | 0.00 | 0.00 | 0.00 | 81 | 1008.3 |
| 20260505170104 | 24 | 290 | 6.4 | 17.7 | 0.00 | 0.00 | 0.00 | 81 | 1008.4 |
| 20260505165544 | 24 | 233 | 1.6 | 17.7 | 0.00 | 0.00 | 0.00 | 81 | 1008.4 |
| 20260505165044 | 24 | 266 | 8.0 | 17.7 | 0.00 | 0.00 | 0.00 | 81 | 1008.3 |
| 20260505164557 | 24 | 286 | 9.7 | 16.1 | 0.00 | 0.00 | 0.00 | 81 | 1008.3 |
| 20260505164044 | 24 | 265 | 8.0 | 19.3 | 0.00 | 0.00 | 0.00 | 81 | 1008.4 |
| 20260505163548 | 24 | 295 | 6.4 | 19.3 | 0.00 | 0.00 | 0.00 | 82 | 1008.3 |
| 20260505163058 | 24 | 282 | 6.4 | 16.1 | 0.00 | 0.00 | 0.00 | 82 | 1008.2 |
| 20260505162544 | 23 | 274 | 8.0 | 22.5 | 0.00 | 0.00 | 0.00 | 82 | 1008.3 |
| 20260505162045 | 23 | 271 | 6.4 | 22.5 | 0.00 | 0.00 | 0.00 | 82 | 1008.3 |
| 20260505161553 | 23 | 253 | 8.0 | 22.5 | 0.00 | 0.00 | 0.00 | 82 | 1008.4 |
| 20260505161045 | 23 | 259 | 1.6 | 14.5 | 0.00 | 0.00 | 0.00 | 83 | 1008.3 |
| 20260505160550 | 23 | 281 | 4.8 | 14.5 | 0.00 | 0.00 | 0.00 | 82 | 1008.4 |